Wind_Speed
4 5 11 9 6 4 6 3 5 2 4 2 6 6 9 8 4 7 9 10 12 11 17 24 27 26 25 23 22 22 23 25 26 27 26 25 27 27 29 32 36 37 36 37
3 12 7 6 5 5 4 5 4 4 5 0 7 12 7 8 8 10 10 13 10 5 9 18 22 24 24 22 20 19 19 21 24 25 27 25 21 26 31 29 33 33 38 40
6 4 8 6 4 6 4 6 5 5 3 3 6 13 6 3 4 5 8 8 5 5 6 7 17 22 23 26 26 19 16 18 20 21 22 25 24 22 19 27 31 35 35 36
7 5 9 4 10 9 8 6 5 3 2 6 2 6 3 4 6 5 11 5 5 5 5 6 13 19 23 26 26 25 19 14 13 13 18 22 21 20 24 24 27 31 32 33
6 8 11 9 7 9 5 6 7 5 3 4 9 6 5 5 4 8 7 4 3 4 6 9 14 17 20 25 27 29 28 25 21 12 9 17 22 23 22 24 26 27 29 30
4 0 5 8 4 7 8 6 4 2 3 7 9 8 4 5 10 5 6 6 6 5 6 9 13 16 22 27 29 31 32 34 30 24 19 13 12 19 19 23 24 26 27 29
3 4 2 4 5 3 6 8 2 4 5 6 2 8 9 3 6 7 9 6 6 6 6 6 10 15 19 24 27 24 30 33 32 30 28 23 19 16 17 17 21 24 26 28
9 5 12 6 7 6 13 11 4 7 5 4 2 8 5 11 5 4 3 8 7 6 5 6 9 12 14 18 23 25 26 28 31 30 28 27 26 23 20 20 20 18 18 23
10 8 1 2 5 11 5 14 7 4 3 2 5 6 7 8 10 7 6 7 7 6 5 5 8 12 14 18 20 23 22 24 29 27 26 26 27 25 25 24 22 22 18 17
6 2 2 9 3 2 7 8 4 3 6 7 5 6 8 2 4 6 7 8 6 5 5 5 9 13 15 17 18 19 22 20 22 24 24 22 24 23 23 25 28 26 26 25
5 3 1 5 9 17 6 8 4 5 5 5 2 6 7 14 9 12 9 7 7 5 4 4 8 12 15 17 20 20 24 24 28 29 25 24 25 23 26 27 27 28 28 29
8 4 4 9 1 1 16 10 10 7 4 4 3 10 2 6 8 11 9 9 6 6 5 5 8 10 11 15 17 20 19 23 23 24 23 22 22 24 28 29 30 30 32 31
12 5 3 2 2 2 6 9 14 8 2 9 9 7 3 4 7 6 12 9 7 6 5 4 6 9 11 14 15 18 19 21 24 24 22 21 23 31 33 30 29 30 34 33
18 5 11 17 7 7 7 11 14 17 10 17 13 17 11 7 10 8 8 8 7 6 5 3 5 8 10 12 14 16 19 21 24 24 25 27 28 31 29 29 29 32 35 32
12 8 15 17 5 5 9 13 17 19 25 15 22 19 25 14 10 15 9 8 9 7 5 3 4 6 9 11 13 14 17 19 20 19 20 21 23 24 25 25 29 30 27 29
7 8 8 14 15 9 6 7 14 24 23 20 26 20 6 3 7 9 14 12 10 8 5 3 4 7 8 11 12 14 16 18 18 18 19 20 21 22 23 27 31 32 33 32
10 8 6 12 7 6 10 23 20 13 20 20 19 28 6 7 10 14 14 11 10 8 5 4 5 6 8 9 11 13 14 14 15 15 18 20 20 21 22 23 23 24 27 30
10 13 8 7 5 12 11 7 22 25 23 20 20 23 13 13 4 5 7 9 10 7 5 4 5 5 7 7 10 11 11 12 13 15 18 20 22 23 25 25 25 26 26 27
10 10 8 4 15 4 4 7 8 11 22 23 23 23 4 7 5 2 5 4 6 6 8 6 5 4 6 8 10 9 10 11 14 17 19 21 22 22 23 23 26 26 27 27
12 9 9 2 6 8 16 10 7 6 10 16 21 17 12 11 8 7 12 10 10 11 8 7 5 5 7 10 11 10 11 13 16 19 19 20 20 21 22 24 27 27 26 26
4 8 16 14 7 6 9 6 6 7 11 7 14 14 17 11 3 9 14 10 12 11 10 7 7 8 9 10 10 10 11 14 16 18 19 20 20 20 21 24 24 26 27 29
9 6 8 6 10 13 5 4 14 6 2 3 4 7 12 12 13 13 12 11 12 11 9 7 8 8 8 9 9 10 11 14 17 19 20 23 24 22 23 24 25 25 24 24
5 9 4 7 5 3 3 2 2 2 3 3 5 6 14 15 8 10 10 10 12 11 8 7 8 7 7 9 9 10 13 16 19 22 24 25 25 25 24 23 23 23 23 22
3 4 4 3 4 4 4 3 1 1 2 4 9 10 8 10 12 12 11 9 10 10 9 6 6 6 5 8 7 10 13 17 20 23 24 22 22 24 22 21 20 20 21 22
5 8 7 5 3 2 9 8 5 6 9 10 9 6 11 13 11 10 10 9 11 9 8 7 5 3 4 6 8 11 14 18 20 19 18 19 18 20 21 19 20 21 19 21
5 7 7 7 1 3 2 12 12 11 8 8 12 9 7 10 11 12 7 10 10 9 8 6 4 3 5 8 10 12 15 17 19 19 20 22 20 21 21 23 25 19 16 19
Wind_Direction
197 189 204 188 181 152 151 152 208 274 256 298 242 249 259 278 207 257 265 263 270 277 290 312 329 337 334 324 318 309 299 288 279 267 248 244 241 240 240 241 246 247 249 253
166 216 185 171 157 177 162 161 208 284 284 193 297 290 249 251 252 237 246 266 272 298 307 325 354 2 1 346 335 318 305 297 287 276 259 243 253 248 246 242 247 245 250 255
198 173 160 160 150 173 194 204 199 231 349 297 316 299 280 298 227 233 248 252 279 276 312 338 352 359 3 7 6 346 320 302 295 289 273 255 247 248 252 246 248 252 253 253
234 203 161 174 203 171 218 181 159 176 119 265 98 286 236 240 258 252 263 249 298 9 2 359 4 10 10 12 23 26 22 2 319 297 272 248 242 241 247 249 257 263 264 261
205 186 170 190 186 179 211 156 179 162 173 262 241 281 278 121 224 248 262 288 50 56 41 14 14 19 18 25 31 37 39 42 36 26 316 274 254 255 261 263 262 262 268 268
205 257 169 169 141 160 143 92 51 109 141 248 209 196 227 188 211 247 249 140 104 67 47 36 31 26 24 30 36 32 36 43 46 49 49 30 315 288 278 273 270 270 268 268
136 196 183 124 113 87 163 144 208 193 204 231 235 192 238 205 185 206 249 160 115 80 69 47 30 24 21 21 24 25 28 31 40 47 48 43 34 23 359 321 296 286 275 271
194 203 182 187 189 180 195 190 168 193 194 217 127 225 246 208 256 221 137 120 111 97 81 60 43 35 29 25 24 24 22 21 29 37 42 40 36 30 22 7 352 338 297 283
191 228 110 168 158 156 177 212 185 85 60 65 222 281 274 217 237 205 151 141 129 108 92 72 49 42 35 29 26 26 24 21 21 24 28 33 32 29 19 13 5 356 340 331
206 141 210 190 133 104 173 150 170 199 210 229 236 248 220 253 106 140 177 165 137 114 94 67 47 40 36 33 27 25 26 20 15 16 18 18 24 21 12 10 1 1 354 348
152 148 87 125 204 188 173 197 201 159 180 185 240 252 205 219 199 178 187 157 143 129 106 74 56 47 37 30 25 23 17 16 9 9 11 8 9 15 7 3 358 352 350 350
174 155 181 202 250 260 220 217 192 195 217 232 228 253 173 208 192 174 161 147 143 134 113 77 52 41 33 24 22 18 13 13 5 3 4 2 358 3 2 357 354 348 343 346
172 195 155 301 334 2 204 208 207 208 88 201 212 258 7 150 144 157 155 157 145 130 104 83 60 39 30 21 16 13 10 7 2 4 1 359 2 1 357 350 354 343 340 344
167 178 218 226 227 153 203 202 201 200 219 235 223 246 250 182 177 177 168 160 152 143 123 83 53 35 28 17 11 10 4 3 2 3 3 4 358 355 352 351 347 344 347 338
174 222 218 241 217 195 211 207 201 207 221 219 242 232 244 218 192 194 167 163 163 161 136 101 65 33 19 12 7 6 1 1 359 358 359 355 348 348 348 346 345 342 339 336
182 234 185 241 228 205 223 218 211 213 225 232 242 251 239 98 110 157 182 174 170 163 142 113 67 29 19 6 4 358 356 356 358 356 352 349 347 343 342 344 343 346 345 338
173 203 173 235 207 180 236 231 227 215 224 220 228 240 146 201 192 184 179 175 164 157 143 105 74 32 11 5 358 355 351 352 354 350 348 347 344 342 341 337 334 332 333 336
188 208 206 228 127 221 230 228 222 220 229 221 233 242 229 220 150 118 137 149 151 150 126 93 63 36 17 6 359 355 358 358 354 350 348 349 345 342 339 337 337 335 335 333
226 211 235 223 223 257 293 222 173 181 240 223 219 233 160 115 84 212 138 125 136 136 121 104 74 49 30 18 2 3 0 1 359 355 350 348 346 342 341 342 340 338 336 334
220 243 228 185 239 214 225 225 162 96 253 223 209 215 158 148 188 207 159 142 132 124 114 104 71 70 43 19 8 7 6 2 360 353 345 346 344 342 341 341 340 337 336 333
192 227 234 256 239 264 244 147 150 148 239 158 198 182 158 187 237 125 128 121 128 128 117 97 81 68 39 16 10 10 4 2 349 347 347 349 352 345 344 342 342 339 340 339
189 200 223 228 246 255 135 81 182 203 22 109 105 151 155 122 122 122 123 131 130 123 113 87 83 68 45 24 17 8 3 346 347 349 351 357 360 355 348 343 342 341 340 337
219 198 201 201 224 355 318 350 7 350 143 168 124 131 135 131 131 130 133 132 130 122 109 84 78 71 48 30 21 4 348 344 346 354 358 358 357 352 349 340 339 339 340 337
252 169 201 162 198 209 264 284 308 342 123 112 116 117 119 122 136 133 134 134 125 115 106 93 87 72 48 22 14 1 347 347 349 355 355 350 344 341 340 340 339 335 334 332
190 149 184 263 249 161 219 218 173 117 112 104 80 96 119 126 129 136 129 126 122 120 116 116 112 92 38 11 7 4 358 356 355 350 349 346 341 338 334 336 332 327 325 329
187 185 189 226 207 163 156 166 169 145 138 123 120 105 86 120 128 129 122 129 137 138 132 123 118 87 17 8 5 1 0 0 358 350 348 347 339 337 336 332 327 330 323 330
Height
834 839 836 840 844 847 853 856 858 857 850 853 853 855 853 846 848 848 843 838 833 829 824 823 821 817 814 811 810 808 807 805 807 807 808 809 808 810 811 812 812 814 816 819
838 832 833 835 843 846 851 856 862 855 851 850 851 847 847 843 836 834 833 828 827 828 825 822 818 815 812 808 804 801 801 800 801 801 801 803 803 803 804 805 805 807 807 808
832 831 831 837 844 850 852 854 854 855 854 852 852 838 836 832 832 831 827 825 826 827 826 823 819 816 812 807 802 798 795 794 795 796 797 798 799 800 800 798 799 800 803 804
832 828 833 838 840 843 851 851 851 854 859 859 857 858 835 832 832 828 820 822 825 826 825 824 822 817 813 809 804 799 794 790 789 790 792 793 794 795 796 797 796 797 797 798
825 831 831 834 834 839 841 845 852 855 861 862 854 860 838 833 833 825 819 819 823 825 825 824 821 819 816 811 806 802 797 790 788 786 789 791 792 793 793 794 794 794 794 794
829 830 826 827 831 835 844 848 857 853 855 856 851 854 838 834 823 821 816 818 822 824 825 825 824 820 816 813 808 805 801 796 791 789 789 790 791 792 792 792 791 791 790 790
834 828 825 826 835 838 838 845 858 854 856 857 853 854 822 822 817 814 810 817 822 824 826 826 825 822 819 815 812 809 805 801 797 793 791 791 791 790 791 790 789 787 786 785
818 829 821 824 823 829 836 835 854 863 864 852 859 838 822 811 809 811 813 819 823 825 827 827 826 825 823 820 817 813 809 806 801 798 795 794 793 792 791 791 789 785 783 781
813 813 814 817 818 820 836 832 832 847 890 868 849 834 818 815 813 813 817 819 823 825 827 828 828 826 823 821 819 816 813 810 806 802 799 795 793 792 792 791 789 786 782 778
811 816 815 812 816 819 823 824 835 842 839 840 828 829 812 809 813 816 818 818 823 826 828 828 827 825 823 822 820 818 815 813 810 806 802 798 794 793 791 788 788 783 781 777
806 806 822 817 815 806 819 820 823 821 838 843 852 815 804 794 803 809 813 818 823 826 827 826 826 826 825 823 820 818 815 812 809 805 802 799 795 790 789 787 784 782 779 774
800 807 819 809 808 808 801 804 811 812 834 835 824 793 788 792 797 801 811 818 822 825 826 826 825 825 825 824 820 818 816 813 812 809 804 800 797 790 786 784 781 780 777 771
790 806 816 817 813 815 810 808 801 808 822 828 815 797 793 795 799 803 809 815 820 822 825 826 825 825 824 822 821 819 817 814 811 807 805 801 796 788 786 785 777 778 776 767
781 796 789 784 779 800 806 801 801 800 807 794 799 787 785 800 800 807 810 814 818 820 822 823 823 823 823 823 822 819 817 814 810 805 801 797 794 791 789 785 782 779 770 770
783 789 785 781 788 793 786 785 794 798 784 790 779 786 771 780 794 798 805 812 815 818 821 823 823 823 824 823 821 820 817 813 810 807 804 801 798 795 791 787 783 778 774 768
782 782 790 783 781 791 787 788 789 781 780 781 773 772 774 786 795 800 799 805 810 815 818 820 821 822 822 823 821 819 817 814 811 809 806 801 797 794 790 783 779 774 770 768
777 778 784 777 778 790 791 776 769 777 770 767 776 750 777 787 784 786 793 800 805 811 815 817 819 822 822 822 820 818 817 814 811 809 806 803 798 792 789 784 781 776 770 762
766 773 775 777 793 775 752 750 751 755 751 757 753 744 754 758 778 786 790 796 804 809 812 815 817 819 820 820 819 817 816 813 811 809 804 800 795 790 785 780 775 769 764 760
764 765 762 769 757 753 746 751 757 757 745 741 744 740 768 779 784 793 793 796 802 807 810 813 815 817 818 818 817 816 815 812 809 806 803 798 793 789 784 779 773 768 764 760
761 764 758 773 756 745 729 728 742 742 742 720 732 738 768 772 771 761 789 795 800 805 808 811 813 814 815 815 815 815 813 811 808 804 801 797 794 789 783 778 772 767 763 758
760 759 752 749 740 755 728 735 739 754 728 722 721 729 755 753 759 773 785 795 800 803 806 808 809 811 812 814 814 813 812 810 808 804 800 796 791 787 782 777 772 766 760 755
749 749 742 744 739 735 735 740 729 723 740 738 740 741 747 766 773 779 786 794 800 803 806 807 808 810 811 812 812 813 811 808 806 802 798 792 788 784 781 776 770 765 760 756
736 723 732 730 727 741 743 741 744 740 737 742 745 748 751 763 772 780 787 793 797 802 806 806 806 809 811 811 811 810 810 807 803 799 793 789 785 783 779 776 771 765 761 758
731 730 729 724 733 740 745 751 746 744 743 746 746 751 754 762 773 780 786 792 798 800 804 806 806 808 810 812 811 810 808 805 801 795 791 788 785 781 778 775 771 767 763 758
724 725 732 730 728 738 736 744 748 748 748 750 753 755 759 764 774 782 787 792 795 801 803 804 807 809 810 811 811 808 805 802 798 794 791 787 785 781 776 773 770 766 764 760
724 719 712 703 711 706 718 730 741 742 748 753 755 761 766 767 774 783 789 793 797 800 802 804 807 807 807 807 806 804 802 799 795 792 789 785 782 779 775 770 764 764 761 756